Theta_e
297 296 295 295 295 297 300 302 303 305 306 307 306 306 304 305 304 303 301 301 300 300 300 300 300 299 300 301 298 296 295 295 295 295 295 296 297 297 297 297 297 296 295 295 294 294 293 292 293 294 296 298 298 297 297 296 296 294 293 292 290 289 289 290 290 290 287 286 288 287 286 287 287 286 285 285 285 285 285 285 285 285 285 285 285
293 293 293 294 295 297 299 302 303 303 305 306 306 306 305 304 304 303 300 300 300 301 301 302 303 305 302 296 294 294 294 294 292 292 293 294 294 295 295 296 295 294 294 294 293 293 292 292 293 293 295 295 295 295 295 295 294 293 292 290 292 290 288 290 290 292 288 286 285 285 287 289 288 286 285 284 285 285 285 285 285 285 284 285 285
293 294 293 293 294 296 299 302 303 304 305 305 306 306 304 304 304 302 300 300 301 302 302 301 299 298 298 295 294 291 292 292 291 291 292 291 292 293 293 293 293 293 293 292 291 291 292 292 292 292 293 293 293 293 294 294 294 293 293 291 288 289 288 287 289 289 289 289 289 286 284 284 286 286 287 285 284 284 285 285 285 284 284 284 285
293 293 293 292 293 295 298 301 303 304 304 304 305 305 305 304 303 301 300 300 301 300 298 295 294 294 294 293 292 291 290 291 290 290 291 291 290 291 291 291 292 291 291 291 291 291 291 291 291 292 292 294 294 292 293 293 293 294 293 292 291 288 289 288 287 286 290 290 288 291 288 287 281 282 283 284 284 283 284 283 284 284 284 284 285
295 293 292 292 292 294 297 300 302 303 304 304 304 305 304 304 303 301 301 300 300 297 294 294 292 291 290 290 291 290 290 290 290 289 289 289 289 289 288 289 290 290 290 290 290 290 290 290 290 291 291 292 294 293 292 292 293 293 293 292 293 291 287 286 286 286 289 286 292 285 285 287 286 283 284 282 285 284 283 284 284 284 284 284 284
295 294 293 293 293 294 297 300 301 302 303 304 304 305 304 304 302 301 300 300 298 295 294 293 294 292 290 291 291 291 288 290 291 290 288 290 289 287 287 287 288 288 288 288 289 289 289 289 289 289 290 290 292 292 291 290 290 291 293 294 293 294 290 286 286 285 285 286 286 287 290 290 283 284 284 280 283 283 283 283 283 283 283 284 284
294 293 293 292 293 293 296 299 301 302 303 304 304 304 304 303 302 301 300 298 296 294 294 294 293 295 296 298 297 296 294 292 291 291 290 288 287 286 286 286 287 287 287 288 288 288 288 288 288 289 289 289 289 288 288 289 290 290 288 290 291 289 290 289 287 285 285 285 285 285 285 284 289 285 283 282 280 282 284 283 283 283 283 283 283
294 293 292 293 293 293 295 298 300 302 303 303 303 303 303 302 301 301 299 296 295 294 294 294 293 294 296 296 295 295 295 292 289 288 287 287 286 285 286 286 286 287 287 287 287 287 287 287 287 287 287 287 287 288 288 287 287 287 287 288 288 289 291 288 286 285 287 284 285 284 284 285 284 286 287 286 283 280 280 281 282 282 282 282 283
294 293 292 292 292 293 295 297 300 302 303 302 302 302 302 301 300 299 297 295 294 294 294 294 295 295 296 296 294 291 290 289 288 288 286 286 285 285 285 285 285 286 286 286 286 286 286 286 286 286 286 286 286 286 286 286 286 286 285 286 287 286 288 288 286 285 286 284 283 283 284 284 283 284 283 286 285 282 280 282 281 282 282 282 282
292 293 293 292 293 293 295 298 299 301 302 303 302 302 301 300 298 297 296 295 294 293 294 294 295 295 294 294 293 288 287 286 287 286 285 285 285 285 285 285 285 285 285 285 285 286 285 286 286 286 286 285 285 285 285 285 285 286 286 286 286 286 285 287 287 285 286 285 286 286 286 284 285 285 284 282 283 285 282 281 281 282 280 282 283
290 290 291 292 292 293 294 297 299 300 301 301 301 300 299 299 297 296 296 294 293 293 294 294 294 294 293 292 289 287 286 286 285 285 285 285 284 284 284 284 284 284 284 284 284 284 284 285 285 285 285 285 284 284 284 284 284 284 284 284 285 285 285 285 285 285 285 285 285 286 285 286 285 283 283 284 283 281 280 280 280 281 281 281 283
289 289 289 290 290 291 294 296 298 299 299 300 300 299 297 297 297 296 294 293 292 293 294 294 294 293 293 291 289 287 286 286 286 284 285 285 284 284 284 284 283 284 284 284 284 284 284 284 284 284 284 284 283 284 283 283 283 283 284 284 284 284 284 284 284 284 284 284 284 284 284 284 284 285 285 284 284 283 282 280 280 280 279 281 282
288 289 289 289 290 291 293 295 297 297 298 299 299 298 297 296 296 296 294 293 292 293 293 293 293 292 292 290 289 288 288 287 287 286 286 285 284 283 283 283 283 283 283 283 283 283 283 283 283 283 283 283 283 283 283 283 283 283 283 283 283 284 283 284 284 283 284 284 283 282 283 283 283 283 284 284 283 282 283 280 280 279 279 280 281
288 288 289 290 290 291 293 295 297 297 297 298 298 297 296 295 295 295 294 293 292 292 292 291 292 292 292 290 289 288 288 287 287 286 286 286 285 284 284 284 283 284 283 283 283 283 283 283 283 283 283 283 283 282 283 283 283 282 283 282 282 282 282 283 282 282 282 282 282 282 282 282 282 282 282 283 282 282 281 280 279 280 279 279 280
287 288 289 290 290 291 292 295 296 297 297 297 298 297 296 295 294 294 292 292 292 292 292 291 291 290 290 290 289 288 287 287 287 287 286 285 284 284 284 284 284 284 283 283 283 283 283 282 282 282 282 282 282 282 283 282 282 282 282 281 281 281 281 281 281 281 281 281 281 281 281 281 282 282 282 282 282 283 283 281 280 278 277 279 278
287 288 288 289 290 291 292 294 296 296 296 297 297 296 295 294 294 294 292 291 291 291 291 291 290 290 289 288 288 288 287 287 287 287 286 285 284 284 284 284 284 284 283 282 282 282 282 282 282 282 282 282 282 282 282 282 282 281 281 281 280 281 281 281 281 281 280 281 280 281 281 280 281 281 282 281 282 282 283 282 281 280 278 278 278
288 288 289 289 289 290 291 293 295 295 296 296 296 296 295 294 293 293 292 290 290 291 291 290 289 289 288 288 288 287 287 286 286 285 285 285 285 284 284 283 283 283 283 282 282 282 282 282 282 281 282 282 282 282 282 281 281 281 281 280 280 280 281 280 280 280 280 280 280 280 280 280 280 280 280 281 281 281 282 281 281 280 281 278 277
289 289 288 289 289 290 290 292 294 295 296 296 295 295 295 294 293 292 291 289 289 290 290 289 288 288 287 287 287 287 286 286 285 284 284 283 283 283 283 282 282 282 282 282 282 282 282 282 282 281 281 282 281 281 281 281 281 281 281 280 280 280 280 280 280 280 279 280 279 279 279 279 279 279 279 280 280 280 280 280 280 280 280 279 278
287 287 287 287 288 289 290 291 292 294 295 296 295 294 294 294 293 292 291 290 289 289 289 289 289 288 288 287 286 286 286 285 285 284 283 283 283 283 283 283 282 282 282 282 281 281 281 281 281 281 281 281 281 280 280 280 280 279 279 279 279 280 279 279 279 279 278 278 278 278 278 278 278 278 278 279 279 279 280 279 279 280 279 280 278
288 287 287 288 288 289 289 290 291 292 293 294 294 293 292 293 292 291 291 290 289 288 288 288 288 288 287 287 286 286 285 285 284 283 283 283 283 282 282 281 282 282 282 281 281 281 281 281 281 281 281 280 280 280 280 279 279 279 279 279 279 279 278 278 278 278 278 278 278 277 277 277 277 278 278 278 278 278 278 278 278 279 278 278 278
288 288 287 287 288 288 288 289 290 291 292 293 293 292 292 292 291 291 289 288 288 288 288 288 287 287 287 286 285 285 284 284 283 283 283 283 282 282 282 282 282 281 281 281 281 281 281 281 280 280 280 279 279 279 279 279 279 278 278 278 278 278 278 278 278 277 277 277 277 277 276 276 277 277 277 277 277 277 277 277 277 277 277 277 277
287 287 287 287 287 287 287 288 289 289 290 291 292 292 291 291 291 290 289 288 287 287 287 288 287 287 286 286 285 284 284 283 283 282 282 282 281 281 281 281 281 281 281 281 281 280 280 280 280 280 279 279 279 279 278 278 278 278 277 278 278 278 277 277 277 276 276 276 276 276 276 276 276 276 276 276 277 276 276 276 276 276 276 275 276
287 287 286 287 287 287 287 288 288 289 290 291 290 291 291 290 290 289 288 288 287 287 287 287 286 286 285 285 284 284 283 282 282 282 281 281 281 280 281 281 280 280 281 280 280 280 279 280 279 279 279 278 279 278 278 277 278 278 277 277 277 277 277 276 276 276 276 276 275 276 276 275 275 275 275 276 276 276 276 276 275 276 275 275 275
286 285 285 286 286 286 287 287 287 288 289 289 290 290 291 290 290 289 288 288 287 287 286 286 286 285 285 284 284 283 282 282 281 282 281 280 280 280 280 280 280 280 280 280 280 279 279 279 279 279 278 278 278 278 277 277 278 278 277 277 277 277 277 277 277 276 275 275 275 275 275 275 275 275 275 275 275 275 275 275 275 275 275 274 275
285 285 285 285 285 285 286 287 288 288 289 289 290 290 290 290 289 289 289 288 287 287 286 285 285 284 284 283 283 283 282 281 281 281 280 280 280 280 280 280 280 279 280 279 279 279 279 279 279 279 278 278 278 277 277 277 277 278 277 277 277 277 277 277 276 276 276 275 276 276 276 275 275 275 274 274 275 274 275 274 274 274 274 274 274
285 284 284 285 285 286 286 287 287 288 288 289 289 289 289 289 289 289 288 288 287 286 286 285 284 284 283 283 283 282 282 281 281 281 280 280 280 280 280 280 280 279 279 279 279 279 279 279 279 279 278 278 278 277 277 277 277 277 277 277 277 276 276 276 276 276 276 276 276 276 275 275 275 275 275 274 274 274 274 274 274 274 274 274 274
284 285 285 285 285 285 286 286 287 288 288 289 289 289 289 289 288 288 288 288 287 286 285 285 284 284 283 283 283 282 282 282 281 281 280 280 280 280 280 280 280 279 279 279 279 279 279 279 278 278 278 278 277 277 277 276 276 276 276 276 276 276 276 276 276 276 276 276 276 276 275 275 275 275 275 274 274 274 273 273 274 273 274 273 273
284 284 284 285 285 285 285 286 286 287 288 288 289 289 289 288 288 288 287 287 287 286 285 285 284 284 283 283 283 283 282 282 281 281 280 280 280 280 280 280 280 279 279 279 278 278 278 278 278 278 278 277 277 277 276 276 276 276 276 276 276 276 276 276 275 276 276 275 275 275 275 275 275 275 275 275 275 274 274 273 274 273 273 273 273
284 285 285 285 285 285 285 285 286 286 287 287 288 288 288 288 288 287 287 287 286 286 285 285 284 284 284 283 283 283 283 282 282 281 281 280 281 281 280 280 280 279 279 279 279 279 278 277 277 277 277 277 277 276 276 276 275 276 276 276 276 276 276 275 275 275 275 275 275 275 275 275 275 275 276 276 275 275 274 273 273 273 273 273 272
285 286 286 286 286 286 286 285 285 286 287 287 287 288 288 287 287 287 286 287 286 285 285 285 285 284 284 284 283 283 282 282 282 281 281 281 281 280 280 280 279 279 279 279 279 278 278 277 277 277 276 276 276 276 277 279 278 276 276 276 276 276 276 276 275 275 275 275 274 275 274 275 276 276 277 278 278 278 277 275 274 273 272 272 270
287 287 287 287 286 286 285 285 285 286 286 287 288 288 288 287 287 286 286 286 286 285 285 285 285 285 284 284 283 283 283 282 282 282 282 281 281 280 280 280 279 279 279 278 278 278 277 277 277 276 276 276 276 276 279 281 281 280 277 277 276 276 276 276 276 275 275 275 274 275 274 275 276 277 277 278 279 279 279 278 277 276 275 272 269
291 289 288 287 286 286 286 286 286 286 286 287 287 288 287 287 287 286 286 285 285 285 285 285 285 285 284 283 283 283 282 282 282 282 281 281 281 280 280 280 279 279 278 278 278 278 278 277 277 276 276 275 276 278 281 282 282 282 280 277 277 276 276 276 276 275 275 275 274 274 274 274 275 276 276 277 278 280 280 280 280 279 278 278 276
293 292 290 289 288 287 287 287 287 286 286 287 287 287 287 287 287 286 285 284 285 285 285 285 285 285 284 284 284 283 283 283 282 282 281 281 280 280 279 279 279 279 278 278 278 278 277 277 276 276 275 276 275 280 281 283 283 283 282 279 277 277 276 276 276 275 275 275 274 274 274 273 273 275 275 275 275 276 279 280 281 281 281 280 280
294 294 293 291 289 289 288 288 288 287 287 287 287 287 287 287 287 286 285 284 284 284 285 285 285 285 284 284 284 283 283 283 282 282 281 280 280 279 280 280 279 279 278 278 278 278 277 276 276 276 276 276 275 279 282 283 284 284 284 281 277 277 277 276 276 275 275 275 274 273 273 273 273 273 274 274 274 274 275 275 277 278 279 279 281
295 293 291 291 291 290 288 287 287 286 286 286 286 287 286 286 285 285 285 284 284 284 284 285 285 285 285 284 284 283 283 283 282 282 281 280 280 280 280 280 279 279 278 278 278 277 277 277 277 276 276 275 275 280 283 284 285 285 285 283 277 277 276 276 276 275 275 275 274 273 273 273 273 272 273 274 273 273 272 272 272 272 273 274 275
294 293 293 292 291 291 289 288 286 286 285 285 285 286 285 285 285 285 284 284 284 284 284 284 284 284 284 284 284 283 283 282 282 281 281 280 280 280 279 280 279 279 279 278 278 278 277 277 277 276 276 275 275 281 283 284 285 286 286 284 279 277 276 275 275 275 275 274 274 274 273 273 273 272 274 276 276 273 271 269 269 269 270 271 272
293 292 293 292 290 289 288 286 285 285 285 285 285 285 285 284 284 284 284 284 284 284 284 284 284 284 284 284 284 283 283 282 282 281 281 280 280 280 280 279 279 279 278 278 278 278 278 277 277 276 276 276 276 280 283 284 285 286 286 283 281 278 277 276 275 275 274 274 273 273 273 273 273 273 274 277 279 277 271 268 268 268 268 268 269
292 289 288 286 286 285 285 285 284 284 284 284 284 285 284 283 283 283 283 283 283 284 284 284 284 284 284 284 284 284 283 283 282 281 281 281 281 281 280 279 279 278 278 278 278 277 277 277 277 276 276 276 276 278 282 284 285 286 285 283 282 279 278 277 277 276 274 274 274 274 274 273 272 272 275 277 279 278 274 271 269 268 268 267 269
287 287 287 284 284 285 284 284 284 283 283 283 284 284 283 283 283 282 283 283 283 283 283 284 284 284 284 284 284 284 283 283 282 282 281 281 281 281 280 279 279 279 278 278 278 277 277 277 277 277 278 277 277 278 282 283 284 286 285 283 282 280 279 278 277 277 276 275 274 275 275 274 274 274 276 277 279 278 276 274 272 271 270 269 270
283 283 285 284 283 283 283 283 283 283 282 283 283 283 283 282 282 282 282 283 283 284 285 285 285 284 284 284 284 283 283 283 282 282 282 281 281 280 280 279 279 279 279 278 278 278 277 277 277 277 277 277 277 277 278 283 284 285 286 284 282 280 279 278 277 277 277 276 275 274 276 278 279 278 278 279 279 280 277 275 275 272 270 270 273
283 284 283 283 283 284 283 283 283 282 282 283 283 283 282 282 282 281 282 283 284 284 285 284 284 284 284 283 284 284 283 283 283 282 282 281 281 281 280 279 279 279 279 278 277 277 277 277 276 276 276 276 276 275 276 280 283 284 285 285 282 281 280 280 279 278 277 277 276 275 274 277 280 281 281 281 280 280 280 277 275 274 273 274 274
281 282 283 283 283 282 282 281 281 282 282 282 283 282 282 282 281 281 282 283 284 284 284 284 284 283 283 283 283 283 284 283 283 282 281 281 281 281 280 280 279 278 278 277 276 276 276 275 274 274 274 274 275 276 274 278 281 283 284 285 283 282 281 280 279 278 277 276 276 276 276 276 279 280 281 282 282 282 281 279 277 279 279 279 276
281 281 281 283 282 282 281 281 281 281 282 283 283 282 281 281 281 282 283 283 284 284 284 284 283 283 283 283 283 283 283 283 282 282 281 281 280 279 278 278 277 276 276 275 274 274 273 273 273 273 272 272 272 273 277 275 279 281 283 284 285 284 284 281 278 277 277 277 277 276 275 276 278 279 280 281 282 282 281 280 282 282 282 281 280
279 280 280 281 280 280 280 279 281 281 282 283 283 282 282 282 282 283 283 283 283 283 283 283 283 283 282 282 282 282 282 282 282 281 281 279 277 277 276 276 275 275 274 274 273 272 272 272 272 273 272 272 271 271 275 277 276 279 281 282 283 284 284 282 279 278 278 278 277 276 274 277 278 279 280 281 281 281 280 281 281 282 282 281 280
280 279 278 279 280 279 279 279 279 280 282 283 283 282 281 282 282 283 283 283 283 283 283 282 282 282 282 282 281 281 280 279 279 279 278 277 275 274 274 272 273 273 273 273 273 272 272 273 273 273 273 273 272 271 270 274 277 278 279 281 282 282 283 283 281 281 280 278 279 280 279 279 279 279 280 281 281 280 281 281 281 281 280 279 278
276 276 277 278 278 278 278 278 276 277 279 279 281 282 281 282 281 282 282 283 282 282 282 281 281 280 280 278 277 276 277 277 277 278 278 277 275 275 275 273 273 273 273 273 273 272 272 272 272 273 273 273 271 270 270 269 273 276 277 279 280 281 281 281 281 281 281 282 282 282 282 281 281 280 279 278 277 277 279 280 280 280 278 278 277
277 276 276 277 277 278 277 277 276 273 275 275 276 278 281 279 279 280 280 281 281 280 279 277 277 276 276 276 276 276 275 275 275 276 276 275 275 275 275 273 273 273 273 273 273 272 272 272 272 272 272 271 269 269 269 268 267 269 270 272 275 276 279 279 279 278 279 278 279 279 279 281 281 281 280 279 279 278 278 277 277 277 277 277 276
275 275 277 277 278 278 277 276 275 273 273 274 275 275 276 276 275 276 277 278 278 277 277 276 275 275 275 276 276 272 274 275 274 275 275 274 274 275 275 274 273 274 273 272 272 272 272 272 272 272 271 269 270 269 269 268 267 266 267 268 268 269 270 271 273 274 275 275 275 276 276 275 275 276 277 278 278 277 276 275 275 275 275 274 274
276 275 276 279 278 277 277 276 274 272 272 271 270 270 271 274 274 274 276 277 276 275 275 273 273 274 273 274 275 274 275 274 274 273 273 274 275 274 275 274 271 274 275 274 273 273 273 273 273 272 271 270 270 270 271 273 270 271 268 267 266 267 267 268 270 274 272 271 271 271 271 271 272 272 273 274 275 275 275 275 274 274 273 272 271
275 275 276 276 276 277 275 274 273 272 272 271 269 268 268 270 272 273 275 275 274 273 273 272 272 273 272 272 272 272 271 273 273 273 272 268 272 276 274 274 271 274 277 278 277 273 272 271 271 272 272 273 272 270 276 277 277 277 276 276 274 273 273 270 271 274 274 271 269 269 269 269 270 270 271 272 273 273 273 272 271 272 270 268 267
275 276 275 276 275 275 274 273 272 271 271 270 269 268 268 268 270 272 274 274 274 274 272 271 271 271 272 272 271 271 270 270 271 272 271 271 269 269 278 278 277 276 277 279 279 279 278 276 272 270 269 276 277 277 278 278 278 278 278 278 278 278 278 277 277 274 273 272 270 269 269 269 269 270 270 271 272 272 272 271 271 270 270 268 268
Wind_Speed
1 8 9 11 11 10 9 9 9 11 11 11 9 9 9 9 10 10 6 6 6 7 5 6 7 6 4 5 6 3 4 4 4 2 3 3 4 7 5 5 6 5 4 5 7 8 6 6 7 5 5 7 8 9 9 10 9 11 11 8 14 13 8 6 6 7 12 9 7 7 7 7 7 7 8 6 6 5 4 5 5 6 5 6 5
4 5 7 8 9 11 8 9 11 14 12 11 11 10 9 10 10 9 7 6 6 8 7 6 4 6 8 5 6 4 6 4 4 3 2 4 5 5 5 7 4 5 5 5 6 6 8 6 6 7 6 6 7 8 9 10 11 10 11 10 3 10 8 5 5 2 5 8 9 6 6 4 4 6 7 7 5 5 4 5 5 6 6 5 4
6 9 7 9 9 10 9 9 10 11 12 12 11 11 11 10 9 10 8 7 7 7 5 6 2 4 4 6 5 5 4 3 3 3 2 5 5 3 6 8 5 5 5 6 6 5 7 7 7 6 7 9 10 9 10 10 9 12 10 12 9 3 4 0 1 3 5 4 6 8 5 4 2 4 4 6 5 4 4 5 5 5 6 5 4
12 12 12 9 9 8 7 9 11 11 11 12 13 14 10 10 10 10 8 8 8 6 5 5 6 8 8 7 6 4 5 4 5 5 4 5 6 3 5 6 5 5 6 6 5 5 7 8 7 7 7 6 10 11 10 10 9 9 8 9 11 10 4 3 2 2 4 10 5 0 3 3 5 2 3 3 2 4 5 5 4 4 5 4 4
12 9 9 11 12 13 13 11 11 13 14 15 15 13 8 13 10 10 9 8 6 7 7 7 9 8 8 9 8 8 7 5 5 4 2 1 5 4 4 5 5 5 6 5 5 7 6 7 7 7 7 6 7 10 10 10 9 8 10 10 10 12 7 3 1 0 2 4 4 5 3 3 2 5 5 4 1 2 4 3 4 4 4 4 4
13 12 13 14 13 10 10 12 15 14 16 14 12 12 12 13 11 11 8 9 7 8 9 8 10 10 9 8 8 6 6 6 8 9 6 6 5 4 4 4 4 5 4 5 5 6 7 7 8 8 7 6 7 8 9 8 8 10 10 10 9 7 10 5 4 2 3 2 2 2 1 2 7 5 2 4 2 2 1 3 4 4 3 3 3
8 6 7 12 12 12 11 14 15 15 13 10 10 11 13 13 13 11 9 7 7 9 9 7 7 10 13 13 13 13 12 6 3 4 5 3 3 6 4 4 3 5 4 4 5 5 6 6 7 7 7 6 6 7 8 9 8 9 6 5 7 7 8 8 8 5 4 4 3 3 4 3 7 9 3 6 5 2 1 2 3 3 3 3 3
8 10 10 12 13 15 16 15 14 14 11 10 10 10 14 14 14 12 9 8 7 8 9 7 8 9 9 8 8 9 10 12 10 6 4 5 4 5 5 4 3 3 4 5 4 5 6 6 6 6 7 6 6 7 8 6 5 3 3 5 6 6 7 10 8 7 7 3 1 3 6 5 5 5 5 4 5 8 5 1 0 1 1 2 2
9 9 11 13 14 14 12 13 12 11 11 13 12 12 11 11 11 10 10 9 7 10 10 8 8 8 8 9 9 3 5 6 5 5 6 5 6 5 5 4 3 3 3 4 4 5 4 6 6 6 7 6 5 5 5 6 7 8 7 6 7 4 3 7 9 6 7 7 6 3 5 5 4 4 3 3 4 5 4 3 3 1 1 0 1
7 9 9 10 11 11 11 9 10 11 11 11 11 10 10 10 12 12 12 8 8 9 8 9 8 7 6 8 11 8 6 5 5 6 6 5 7 6 5 4 3 4 3 3 4 4 5 5 5 6 6 6 5 6 7 6 6 6 7 6 6 7 3 6 8 6 5 6 3 6 5 3 4 3 4 4 4 3 5 5 4 4 3 2 0
5 6 6 7 7 9 9 12 12 11 10 12 12 11 11 12 12 13 13 8 9 9 9 9 8 6 8 9 11 10 11 13 9 6 5 6 6 6 5 5 3 4 3 3 3 4 4 3 4 5 4 5 6 6 6 6 5 5 5 5 5 6 4 6 7 5 4 4 5 5 6 6 5 4 5 2 3 3 4 3 2 3 2 3 3
4 4 5 6 7 8 9 11 12 12 11 13 12 11 11 12 12 15 11 10 10 11 10 9 8 8 7 9 10 9 12 10 11 12 10 10 8 7 5 4 4 3 3 4 4 3 4 4 4 5 5 5 5 5 5 5 5 5 5 4 4 5 5 6 6 6 5 5 4 2 3 2 1 4 4 3 4 4 5 5 4 2 2 3 0
5 6 6 7 9 11 12 12 11 13 13 14 13 12 12 12 14 16 15 10 10 10 11 9 10 8 9 8 7 10 11 14 10 11 11 10 8 8 8 7 5 6 5 6 5 5 4 5 5 5 5 5 5 6 6 6 5 5 5 5 5 5 4 5 5 5 4 4 3 2 2 2 2 3 3 4 2 3 5 5 2 2 1 1 0
6 6 7 9 10 10 12 12 13 11 12 13 13 13 11 11 13 15 14 10 10 10 11 11 10 9 9 8 8 10 10 10 8 10 9 8 9 10 9 9 8 8 7 6 5 5 4 3 5 6 6 6 6 7 6 6 5 6 6 6 5 4 4 6 7 6 6 6 4 4 3 3 3 2 2 3 4 4 3 4 4 2 1 0 1
7 7 9 10 10 10 11 12 12 12 13 13 12 12 11 11 12 13 12 12 11 11 11 11 8 9 9 10 10 9 10 9 6 7 8 9 8 10 8 7 7 7 7 5 5 5 5 5 5 7 6 6 6 6 6 6 6 6 6 6 5 4 5 6 6 7 6 6 5 4 5 4 3 2 1 2 1 0 3 4 3 3 1 1 1
7 9 9 9 8 9 9 10 11 11 13 12 14 13 13 13 14 14 14 13 12 12 11 12 10 9 9 10 10 10 8 6 4 5 5 7 10 9 10 9 7 7 6 6 5 5 5 6 6 7 7 6 6 6 6 6 6 7 6 5 6 3 7 8 7 7 7 7 7 5 5 4 2 2 2 2 2 1 2 2 1 2 1 1 1
7 10 10 8 7 9 10 11 11 11 13 15 15 15 16 15 14 14 13 11 12 13 13 12 11 11 10 11 10 9 9 10 8 9 10 8 7 8 10 9 8 7 6 6 6 5 5 6 7 7 6 6 6 6 6 6 5 5 6 6 6 6 6 7 6 7 6 6 6 6 5 5 3 3 2 2 2 2 2 2 1 1 1 1 0
10 8 6 8 9 11 10 10 11 12 13 13 14 12 12 13 14 14 13 14 13 13 12 12 12 12 11 11 10 11 10 10 9 11 10 10 8 7 8 9 8 7 7 6 6 7 6 7 7 7 6 6 6 6 6 5 5 4 3 3 3 5 6 5 4 6 6 5 6 5 4 4 3 3 3 2 2 2 3 2 2 1 0 2 1
7 8 8 8 10 10 11 11 10 10 10 11 10 11 10 10 11 12 14 15 15 12 11 9 10 9 10 11 12 11 9 8 8 10 9 10 11 10 10 9 8 8 8 8 7 7 7 6 6 7 6 7 6 6 6 5 4 4 3 3 3 3 5 5 4 5 5 6 6 7 4 4 3 4 3 3 2 3 3 3 2 2 1 1 3
8 8 8 8 8 9 11 11 12 12 11 10 10 9 11 11 12 12 10 10 11 11 11 11 11 10 9 9 10 10 11 11 10 10 9 9 8 11 11 10 9 8 8 8 7 7 7 8 6 7 7 7 7 6 6 6 5 3 4 4 4 4 5 6 5 3 4 5 7 6 5 5 4 4 3 3 3 3 3 3 3 3 2 1 2
8 7 7 8 8 8 9 8 8 6 7 8 9 12 12 11 12 12 14 13 13 13 13 12 11 11 11 12 10 9 9 8 9 11 9 8 8 9 8 8 8 8 8 8 8 8 8 7 8 7 7 7 8 7 6 6 5 5 4 4 5 5 6 5 5 6 4 5 5 6 5 4 5 5 4 4 4 4 3 3 3 3 3 3 3
7 6 6 7 7 7 7 7 7 8 9 11 11 10 11 12 12 12 11 12 13 12 13 12 11 10 12 12 11 9 9 9 11 9 8 8 9 8 9 9 10 8 8 9 9 8 7 8 8 7 7 7 7 7 7 6 6 6 5 4 5 6 6 5 5 6 5 3 5 6 6 5 5 5 5 5 4 4 4 5 4 4 3 3 3
6 6 6 6 7 8 9 11 11 12 12 12 11 11 12 12 12 12 13 13 13 13 12 11 11 11 12 10 11 11 10 10 11 9 10 10 8 8 8 9 9 9 7 7 8 8 8 8 7 7 7 7 7 7 6 6 6 7 7 7 6 6 7 7 6 6 6 6 5 5 6 5 3 5 5 4 4 4 4 4 4 4 4 4 4
5 4 4 6 6 6 8 10 10 10 11 12 12 12 12 12 13 12 14 13 12 11 11 11 10 10 11 11 11 9 10 12 11 9 11 10 9 8 7 8 8 7 9 7 7 8 8 8 8 7 7 7 7 7 6 6 7 8 7 7 7 6 5 5 6 6 6 6 6 6 6 6 5 5 5 4 4 4 4 4 4 4 4 4 4
6 6 6 6 7 9 10 10 11 11 10 11 12 12 12 12 11 12 12 12 12 11 11 11 11 11 10 9 9 9 9 12 11 10 12 11 10 9 8 9 9 8 8 8 7 7 8 8 8 9 8 8 8 8 8 7 6 6 6 5 6 6 6 6 6 6 6 6 7 6 6 7 6 6 5 5 5 6 5 4 5 4 4 3 3
7 5 6 10 10 8 8 10 10 11 12 11 11 11 11 11 12 12 12 11 11 10 11 11 11 12 11 12 11 9 10 10 12 12 11 10 11 9 9 7 8 9 9 7 9 8 7 9 7 8 7 8 8 7 7 7 6 6 6 5 5 6 6 5 5 6 6 6 6 6 6 7 7 8 7 6 6 7 5 5 5 5 4 4 4
9 8 7 4 7 11 12 11 11 10 11 11 11 11 12 12 12 12 11 12 11 11 12 12 12 13 12 12 12 9 9 10 10 10 9 9 9 9 9 9 9 10 9 9 8 8 7 7 7 7 8 7 7 7 6 6 6 5 6 7 6 6 5 4 4 5 5 5 5 5 6 8 8 8 7 7 7 7 6 7 7 6 5 5 5
7 6 8 11 10 9 11 12 11 11 9 10 11 12 12 13 13 12 11 11 10 11 12 13 12 12 12 13 11 10 9 8 9 8 10 10 10 9 9 9 10 11 12 11 10 9 8 7 7 7 7 6 6 6 6 6 5 5 6 7 7 6 6 5 4 4 4 5 5 6 6 7 7 7 7 6 7 7 6 6 6 5 6 6 6
9 10 9 10 11 12 11 11 11 10 12 12 11 11 11 10 10 11 11 12 12 12 13 13 13 13 12 11 10 9 8 9 9 10 12 12 12 12 11 11 11 10 9 11 10 10 9 8 6 7 7 6 6 6 6 6 7 7 7 7 7 7 6 6 5 5 4 5 5 5 6 6 7 7 9 8 8 7 6 5 6 6 6 6 4
11 11 11 12 13 10 10 10 11 14 13 13 13 13 13 13 12 11 12 11 11 13 13 12 13 13 11 10 11 10 10 10 10 12 12 12 11 11 11 12 12 11 10 10 10 10 10 11 10 9 8 8 8 7 8 13 11 8 7 6 6 6 6 5 5 5 5 5 6 5 5 8 9 10 11 12 13 13 11 8 6 7 6 5 5
10 9 10 11 10 9 8 11 14 15 16 15 14 12 11 12 12 12 13 11 11 12 13 13 13 12 11 11 11 12 11 13 12 12 10 12 12 11 11 10 10 10 11 11 10 11 11 11 12 12 11 8 7 6 13 15 14 14 8 7 6 5 5 5 6 6 7 6 5 6 5 7 9 9 10 14 14 14 13 14 13 12 10 9 8
11 11 10 9 10 11 12 14 16 16 15 13 13 13 12 14 12 12 11 10 12 12 13 13 12 12 12 13 13 14 14 14 14 12 12 11 10 10 10 10 10 10 9 8 11 12 11 10 8 8 8 8 8 10 16 16 16 17 13 8 5 5 6 6 6 6 6 5 6 6 6 4 6 7 7 8 11 13 14 14 15 15 15 17 14
11 12 12 12 12 14 16 15 13 13 15 16 13 11 15 13 12 11 10 11 13 12 12 12 12 12 13 13 13 13 13 11 11 10 10 10 10 10 10 10 11 10 8 10 12 11 11 10 10 10 10 9 8 13 16 17 17 17 17 11 5 5 6 6 7 7 7 7 6 5 5 5 5 10 8 7 7 8 11 15 16 16 17 18 18
12 13 12 11 10 9 11 14 14 13 13 10 12 13 10 9 10 10 13 12 12 11 11 11 11 12 12 12 12 11 12 11 11 11 10 11 11 12 11 9 9 9 10 10 10 11 10 10 11 11 10 9 9 13 17 17 17 18 18 14 7 6 6 6 7 7 8 8 7 7 6 7 6 7 7 8 8 8 8 7 8 11 11 13 17
16 12 10 11 12 12 10 9 11 10 8 10 10 10 9 10 11 12 11 12 11 11 11 10 11 10 10 10 11 11 10 9 10 10 10 11 11 10 10 10 10 12 12 12 12 12 11 11 10 10 10 9 8 14 17 18 18 19 18 14 6 6 5 5 6 8 9 9 8 7 8 7 6 7 7 9 8 8 6 7 9 9 7 7 7
13 12 13 12 13 14 14 12 6 9 10 11 11 10 11 11 11 13 12 12 12 12 12 11 11 11 11 11 11 10 11 11 11 11 11 12 11 12 12 10 9 8 7 6 6 7 10 11 10 10 9 9 7 16 17 19 19 18 19 10 7 7 7 7 8 7 8 7 7 8 7 7 7 7 10 16 13 8 7 9 10 10 9 7 8
11 11 13 10 7 7 8 6 8 9 10 11 10 11 11 11 11 11 11 11 12 12 12 12 11 11 12 12 13 13 12 12 12 12 11 11 11 11 9 7 9 8 8 9 9 9 8 9 10 9 9 8 8 14 19 19 19 20 15 9 9 7 8 9 9 8 7 7 8 8 8 6 8 9 11 15 16 14 8 10 10 11 10 6 9
9 6 5 4 4 3 4 8 9 9 10 10 11 12 12 11 11 11 12 12 12 13 12 12 12 12 12 12 12 12 12 12 12 13 13 11 9 6 8 8 10 10 10 9 7 6 5 6 8 9 10 10 9 12 19 19 20 22 17 12 8 7 7 9 9 8 7 7 8 13 10 8 8 8 12 16 17 14 11 11 11 11 11 11 12
6 6 6 5 6 8 8 8 10 11 9 11 12 13 12 12 12 12 12 12 12 11 11 12 12 11 11 10 10 10 10 11 12 12 12 12 12 11 8 7 7 7 7 6 6 6 5 5 7 8 7 10 9 11 19 20 22 22 17 10 8 6 6 8 6 6 6 6 6 10 16 13 11 11 15 16 18 16 11 11 11 10 13 14 13
3 4 5 6 6 7 7 10 11 11 11 13 12 12 12 12 11 11 12 12 13 13 11 9 9 10 10 10 11 13 12 13 13 11 10 10 8 8 9 9 8 7 7 6 7 7 9 7 7 7 9 10 10 8 10 19 19 19 20 11 8 6 9 10 7 7 6 5 7 8 11 18 20 18 18 19 19 20 14 11 10 10 10 15 8
4 4 5 6 6 7 9 9 8 10 11 11 11 11 10 9 10 10 11 11 10 8 9 10 10 10 9 10 9 11 12 10 10 10 10 9 8 9 9 9 9 7 7 7 8 7 8 7 7 8 8 8 8 8 7 14 17 18 19 16 9 9 8 7 6 7 6 6 5 6 6 14 20 21 20 20 20 20 20 13 13 12 13 11 4
1 4 5 6 6 6 7 6 7 11 11 10 11 11 9 10 9 11 10 7 9 9 9 9 9 9 9 9 10 8 9 9 9 9 10 9 8 9 9 10 8 8 9 9 8 7 7 7 6 7 7 7 6 9 6 10 15 17 17 19 11 9 9 7 8 9 7 6 7 6 6 9 17 20 21 22 22 21 22 15 15 20 21 20 15
4 4 3 7 7 8 7 8 8 9 10 9 11 11 9 9 11 10 8 9 9 9 9 9 9 10 10 10 9 11 10 8 9 10 11 10 8 9 8 8 8 8 9 9 8 7 7 6 5 5 5 6 5 7 11 9 13 15 16 16 18 12 11 8 9 11 11 8 4 7 7 11 17 19 20 21 22 23 20 18 23 22 22 22 19
2 3 5 6 7 7 7 6 7 7 8 9 11 11 10 11 9 7 8 8 9 9 9 10 10 10 10 9 10 10 9 9 10 10 9 9 9 8 8 8 8 8 7 8 6 6 6 6 7 6 5 5 5 4 8 12 11 16 16 16 17 18 16 9 7 9 7 6 6 9 7 13 16 18 19 20 22 22 18 22 22 23 23 20 12
5 6 5 5 9 9 9 7 5 7 6 7 7 11 10 10 7 8 9 10 10 10 10 9 9 9 9 8 8 8 8 8 8 9 9 8 8 8 8 5 7 6 7 7 7 6 8 7 6 7 6 5 4 5 4 9 13 13 16 17 18 19 18 18 13 11 10 9 10 13 13 15 16 18 20 21 21 23 25 23 23 22 19 12 11
5 5 5 7 8 8 10 10 6 5 6 5 5 9 11 8 7 8 9 10 10 11 10 10 9 8 8 8 9 6 7 8 9 8 9 9 10 9 8 7 7 7 7 7 7 7 7 6 7 6 5 4 4 4 6 5 8 8 10 16 18 18 18 18 18 14 15 16 16 16 19 19 18 16 14 12 11 9 16 21 22 20 10 9 7
8 6 8 9 9 10 9 9 8 3 5 5 5 3 6 8 8 8 9 10 10 10 9 8 9 8 7 9 10 8 7 6 7 6 6 6 7 7 7 8 8 8 7 6 6 7 6 6 7 6 4 3 4 4 5 4 4 5 6 7 8 10 13 15 12 10 12 12 12 12 10 12 11 17 18 17 16 13 12 12 9 9 9 9 7
4 6 6 7 8 10 11 9 9 5 5 5 5 6 6 8 7 8 8 9 9 9 10 9 9 8 8 8 8 10 10 7 7 7 7 6 6 7 8 9 10 9 8 7 7 7 7 8 7 5 4 4 5 4 4 6 6 5 4 4 5 4 5 4 5 7 7 7 7 7 9 5 5 7 8 6 6 6 7 7 7 7 7 7 9
8 6 6 9 9 10 9 10 8 5 5 6 5 5 5 7 7 7 9 10 9 8 8 8 7 7 7 6 7 8 7 8 7 6 5 5 9 9 8 5 3 6 8 9 8 7 6 5 6 5 6 5 4 6 7 6 6 9 8 6 5 6 5 4 8 12 8 6 4 4 3 4 4 6 6 7 7 5 5 6 6 7 7 7 6
5 6 6 7 7 11 12 10 7 5 7 7 6 5 4 4 5 6 8 10 10 9 8 8 7 7 7 7 6 7 6 7 7 7 6 3 3 4 4 5 5 5 7 5 6 6 5 5 6 5 5 6 5 3 4 9 11 12 14 14 12 11 11 8 9 13 9 4 3 3 3 3 4 4 5 6 6 7 7 5 4 5 4 4 4
8 11 9 10 9 10 12 11 8 7 8 8 7 5 5 4 4 5 7 9 10 9 7 7 7 7 8 7 7 7 6 6 6 7 6 6 5 3 2 5 6 5 7 8 8 7 7 8 6 4 3 6 6 5 5 5 7 9 10 11 12 12 13 13 13 7 6 6 6 6 6 3 4 4 6 5 6 7 7 6 6 5 5 5 5
Wind_Direction
179 196 186 188 185 184 180 178 180 182 186 185 179 176 165 165 163 166 159 153 147 144 152 146 136 108 71 126 136 117 102 102 91 72 77 86 82 103 113 97 107 112 109 118 117 120 113 123 124 128 144 128 124 125 128 124 123 121 119 115 123 118 109 121 122 126 113 86 81 80 75 64 73 69 67 64 62 64 68 74 72 73 66 62 54
189 197 203 185 188 184 179 182 177 182 191 185 189 183 172 168 172 167 161 166 166 163 153 160 157 163 155 149 138 126 125 125 125 115 104 100 73 97 117 100 108 113 117 118 111 126 127 129 129 136 136 119 110 118 124 125 128 125 129 109 58 120 128 168 169 152 88 132 131 110 89 90 87 71 67 58 62 63 66 71 69 71 68 66 65
211 223 196 198 189 186 187 187 186 185 184 187 188 181 177 177 177 171 166 166 165 166 163 148 118 72 111 130 129 105 42 69 70 82 65 88 82 83 94 95 114 115 114 111 122 125 125 131 134 136 137 134 127 130 133 135 141 141 150 134 128 37 97 22 224 296 129 124 107 114 143 121 123 95 82 58 51 55 57 64 66 73 67 63 63
230 214 205 186 189 190 190 191 186 185 185 188 189 190 184 183 177 173 167 168 169 160 111 82 85 83 72 79 68 57 122 107 93 87 77 92 91 76 60 88 102 114 99 112 120 131 138 135 135 142 144 156 137 138 144 141 148 146 143 136 129 137 159 148 347 255 182 145 158 216 151 132 124 130 116 91 73 54 52 66 62 68 69 65 60
235 215 200 182 188 196 193 187 178 188 192 192 191 190 181 186 176 168 168 170 162 141 129 125 114 96 94 84 85 91 78 87 90 70 55 74 108 79 64 70 92 101 98 109 131 136 133 136 138 140 141 147 143 138 148 153 155 153 152 149 162 147 153 139 98 31 241 340 145 134 107 198 186 136 152 102 94 85 48 55 67 61 69 66 67
231 220 202 193 192 185 192 189 189 193 194 191 184 185 181 181 174 173 164 170 153 140 143 147 145 139 136 131 135 134 130 151 160 161 170 170 140 127 80 69 89 100 109 121 129 136 136 136 138 140 140 142 152 140 133 135 157 161 173 158 147 177 138 134 124 41 35 49 351 352 308 186 146 171 170 134 100 49 27 54 51 49 52 66 68
233 230 187 187 194 189 195 197 195 195 195 175 176 179 181 181 178 173 170 159 150 151 152 152 147 162 164 163 163 165 162 185 146 148 137 110 117 113 102 82 81 116 119 128 132 134 130 133 140 137 134 135 138 138 150 158 156 158 150 165 154 135 147 132 149 146 129 57 34 51 60 35 108 139 174 116 144 145 154 69 62 34 28 50 67
219 215 202 198 192 191 194 198 193 194 175 170 175 174 182 182 179 175 166 161 157 159 163 168 160 168 169 162 164 168 170 165 166 142 123 125 123 104 109 101 97 100 121 123 131 134 135 125 133 135 136 141 148 155 147 142 131 113 137 126 137 155 160 143 148 168 154 140 78 79 71 67 59 47 74 157 137 151 158 165 252 352 18 59 51
212 209 204 196 196 200 198 194 193 178 175 177 180 179 175 172 169 164 164 164 161 169 169 170 175 175 166 164 160 113 94 133 128 125 129 131 113 107 106 111 108 94 98 120 125 131 135 135 138 138 139 142 145 130 129 138 143 140 140 146 152 143 165 146 143 166 153 150 144 92 82 78 72 62 85 76 130 144 141 169 166 157 267 137 51
220 218 203 201 198 196 194 183 178 185 178 175 174 172 173 167 169 168 174 167 163 170 173 169 170 170 160 169 156 137 123 113 135 136 141 135 123 129 124 132 130 121 114 101 118 120 125 129 135 136 134 136 139 130 123 120 121 119 123 131 133 122 136 156 143 143 135 139 145 145 124 109 70 66 52 84 57 49 161 171 179 174 176 169 272
224 217 207 197 190 181 171 182 183 177 175 172 174 176 173 171 170 175 176 163 166 169 172 171 167 170 170 164 152 143 150 151 140 134 132 127 138 143 146 138 137 135 134 118 108 119 116 114 124 123 128 131 122 120 122 119 112 109 111 112 114 122 131 115 98 88 109 113 121 127 138 147 154 160 170 161 134 135 116 130 147 211 186 177 198
211 186 184 162 155 172 178 186 182 178 172 176 175 175 175 175 174 178 172 168 170 174 176 176 172 172 170 162 157 158 154 164 159 153 165 152 157 151 143 137 142 148 140 138 144 127 122 118 121 133 127 118 103 100 99 101 104 107 106 101 95 89 101 98 99 110 95 84 67 59 92 79 108 136 149 139 154 155 149 147 159 160 237 237 268
199 194 179 182 182 181 187 187 178 180 183 178 177 176 177 178 179 180 182 166 169 171 178 175 174 174 169 162 153 161 174 170 168 155 162 153 156 151 158 161 156 163 173 162 156 147 139 139 148 142 116 93 100 98 97 100 105 100 95 91 94 90 95 98 100 88 95 107 114 59 67 76 64 45 99 124 69 100 131 130 141 183 178 168 114
215 203 202 198 195 192 189 185 184 181 181 181 179 179 179 179 182 183 180 170 170 174 177 177 181 176 170 165 163 171 182 184 172 159 162 160 159 160 167 166 170 174 160 168 145 138 139 139 125 97 91 100 97 99 102 98 95 97 94 92 85 83 83 87 94 94 81 83 94 104 88 80 72 53 86 114 133 137 138 130 139 151 137 201 313
218 215 211 206 201 193 188 187 185 182 180 182 180 182 177 180 181 183 176 180 176 176 176 178 174 176 175 175 174 179 182 184 179 164 154 153 163 154 158 153 167 165 160 136 134 132 129 126 105 103 107 106 109 110 105 101 99 96 93 96 97 104 107 107 108 117 114 118 106 110 110 85 85 81 98 98 87 46 120 145 146 152 146 174 233
214 227 226 219 204 191 188 191 188 183 183 183 183 181 182 184 183 187 183 179 179 177 181 180 179 177 178 177 180 181 183 177 160 154 156 162 157 163 158 160 154 142 127 128 130 135 138 120 107 104 109 110 112 114 114 114 118 113 114 123 121 152 131 123 128 124 121 125 120 122 109 103 98 98 80 89 67 62 90 107 109 131 148 212 195
224 226 224 209 197 201 196 191 188 184 186 189 187 185 184 180 183 185 182 177 180 183 182 182 177 174 180 183 180 179 177 175 168 165 159 153 163 158 152 146 130 135 128 127 129 134 129 122 118 116 113 116 113 109 108 108 112 113 127 139 137 152 134 132 140 127 127 126 115 114 111 115 107 102 95 83 89 88 75 73 42 124 143 173 244
225 230 223 203 201 198 197 200 196 192 188 188 188 185 186 184 183 182 177 178 185 183 183 182 177 177 177 181 182 183 179 177 171 166 157 144 151 144 134 142 149 138 131 130 135 135 129 130 124 122 122 117 113 108 102 98 93 94 104 111 126 137 120 117 121 119 123 116 110 106 112 112 111 110 104 102 109 118 126 122 110 110 226 199 191
233 226 213 203 199 197 194 196 198 197 193 191 184 179 181 182 184 185 185 185 182 181 179 178 181 178 179 183 180 178 178 177 171 161 155 162 162 158 158 143 126 136 136 140 144 139 135 134 130 128 128 122 113 110 104 101 95 109 117 128 147 147 123 114 117 113 120 116 117 115 117 118 125 121 127 132 132 143 141 135 129 130 147 168 154
225 223 217 207 202 196 192 190 191 192 189 186 181 178 183 182 180 186 182 177 174 177 175 180 183 182 181 179 184 181 174 172 168 161 160 169 165 159 148 146 148 137 137 141 146 143 143 141 141 136 131 127 124 119 119 115 118 128 145 151 159 152 122 121 124 114 123 123 125 127 138 141 147 142 147 149 152 147 144 145 147 146 145 153 141
225 218 211 203 197 194 194 192 188 184 184 180 182 185 186 182 184 181 179 178 181 180 178 183 179 186 177 181 178 174 171 170 166 171 166 161 158 157 153 141 136 145 143 149 151 149 146 144 141 143 141 140 135 133 129 131 136 150 165 161 156 159 136 132 129 128 129 130 133 134 143 150 158 160 157 159 160 154 146 144 151 158 152 155 163
229 214 196 193 190 187 186 177 178 178 184 189 189 184 186 188 186 181 180 183 180 183 183 180 182 179 182 179 175 173 173 168 169 169 167 155 153 159 148 142 149 142 149 150 150 146 145 143 142 142 142 140 136 131 134 139 152 159 164 173 168 156 143 139 139 138 142 139 139 140 150 158 176 166 163 172 166 161 165 159 173 172 167 164 182
232 201 191 186 183 185 184 183 187 191 191 189 187 188 190 189 184 186 183 188 184 184 181 178 178 178 182 178 170 172 170 173 168 163 159 152 152 149 152 152 148 145 148 153 150 147 146 145 143 145 145 142 142 138 145 152 163 168 170 176 175 164 158 153 157 157 151 146 148 154 158 162 167 170 180 177 166 173 173 182 172 174 173 176 179
255 201 182 174 174 176 178 186 191 195 196 195 194 192 191 191 190 185 191 183 182 181 178 177 178 179 175 171 175 169 167 165 168 164 158 154 150 150 149 147 145 144 149 148 148 146 146 150 144 147 149 146 145 148 152 167 173 179 183 175 170 171 168 166 158 155 155 161 162 156 171 171 176 180 181 181 183 181 185 186 177 178 182 182 179
242 202 181 165 173 189 195 195 196 192 196 201 197 195 194 194 187 191 190 183 182 179 176 177 175 174 173 174 170 166 167 170 165 160 158 153 150 147 155 152 149 151 149 144 146 149 148 151 156 158 157 156 156 155 162 171 179 188 191 176 170 166 171 170 166 161 163 167 173 178 167 172 179 184 186 193 187 189 191 186 188 182 188 185 175
241 200 180 195 198 197 199 200 202 199 194 197 201 197 196 194 197 190 185 180 183 175 177 173 175 175 178 181 178 171 175 166 162 157 159 158 154 156 156 155 159 151 151 155 151 158 158 158 156 157 155 155 156 159 166 169 174 178 180 178 174 169 169 165 164 168 174 182 177 181 177 180 186 191 194 188 188 194 185 194 189 192 188 186 195
233 207 208 211 207 210 207 202 203 202 198 195 196 198 198 196 195 193 186 178 178 176 176 177 178 179 179 186 182 176 169 169 168 161 156 161 161 160 162 162 166 160 156 153 156 153 161 154 152 152 159 157 156 157 164 166 173 181 177 171 164 166 167 163 169 174 182 186 189 189 187 193 197 200 191 191 187 190 193 198 195 189 189 186 202
236 219 210 213 217 216 211 206 201 203 200 202 199 200 200 198 195 188 185 179 175 176 179 181 178 182 186 186 181 175 171 158 159 158 167 166 163 164 167 164 164 166 168 166 159 157 150 155 152 153 149 145 147 156 162 166 173 175 172 175 170 164 166 172 173 182 187 194 198 201 201 204 206 204 199 195 187 193 190 198 197 187 191 193 201
226 224 218 217 217 215 211 206 204 194 201 203 202 201 200 203 198 189 185 187 174 173 181 183 180 185 187 178 172 174 170 167 167 168 173 173 172 172 170 168 172 170 169 167 163 158 150 149 143 145 146 148 161 171 173 170 165 181 183 170 168 170 168 167 174 185 196 201 208 209 211 212 214 214 214 209 206 196 180 193 195 189 193 196 199
228 221 219 220 223 215 208 200 200 202 202 202 202 202 199 196 196 188 186 187 171 179 180 185 185 184 176 171 170 170 171 170 171 179 179 174 173 173 172 172 175 172 165 162 160 161 163 162 157 159 161 170 179 180 177 180 185 178 167 166 164 170 172 173 176 185 198 206 210 210 217 218 215 215 217 217 213 210 208 203 186 188 190 192 195
239 237 231 226 223 216 201 203 209 205 203 201 202 199 195 198 195 188 188 180 175 180 183 184 187 178 169 166 169 174 171 176 180 179 177 177 177 176 174 173 171 169 166 163 160 163 169 171 174 172 174 177 174 173 179 187 186 183 175 168 170 173 180 180 185 189 200 202 206 211 216 219 219 219 221 224 223 218 218 217 211 204 198 187 179
239 235 234 229 220 212 208 212 213 209 202 198 198 194 191 201 189 187 183 171 180 184 184 185 183 173 172 173 176 174 176 181 180 180 177 177 171 170 172 172 169 166 167 162 168 176 175 172 169 167 170 172 180 182 184 187 188 186 182 175 168 174 181 192 194 198 201 193 203 206 214 206 219 216 215 225 229 227 227 226 224 220 217 214 205
241 235 231 225 220 214 213 218 214 206 201 204 188 180 198 192 183 182 163 177 185 186 187 185 180 178 178 179 178 178 180 177 177 173 171 168 168 170 171 172 176 172 161 172 181 173 175 171 168 168 176 181 185 183 186 187 189 189 187 179 172 178 186 197 200 200 199 200 191 200 211 214 213 217 222 221 222 232 237 237 234 234 232 228 226
246 237 231 228 224 227 222 219 215 208 201 186 184 192 188 174 173 166 174 180 180 184 185 187 181 181 178 176 176 176 179 178 172 168 166 169 170 178 178 175 168 167 177 181 180 179 172 172 176 178 180 180 183 186 187 186 189 193 192 185 178 184 197 198 201 201 205 205 194 189 204 220 204 202 214 215 217 219 224 238 244 241 240 239 239
240 241 234 226 224 226 226 220 216 195 175 168 182 179 157 159 165 169 175 174 181 179 183 182 181 178 174 175 174 173 172 169 170 167 168 173 176 176 176 178 177 180 181 183 180 178 182 180 180 180 178 182 184 183 186 189 195 197 197 189 184 189 196 209 210 208 210 201 194 197 210 222 201 201 205 208 210 212 213 225 234 242 243 239 237
230 226 231 225 226 221 215 216 178 173 181 178 175 160 159 168 164 170 172 176 176 180 182 180 180 174 172 171 170 170 171 170 171 171 172 176 178 181 181 178 177 179 180 173 182 185 184 184 182 179 176 182 181 186 191 194 198 200 199 194 180 188 200 208 213 213 212 202 196 203 207 213 214 218 214 215 215 202 207 221 231 241 244 243 241
233 215 228 228 228 213 209 180 175 176 167 171 158 158 159 156 165 169 167 172 175 182 184 180 177 176 174 172 174 174 173 170 171 172 176 179 179 181 180 170 173 175 177 185 189 191 186 181 179 178 179 184 185 193 195 199 200 202 199 203 195 191 203 214 219 210 200 196 201 203 208 202 217 225 219 217 220 209 210 216 228 238 241 245 249
232 224 232 214 198 168 158 162 163 169 166 155 155 157 154 157 164 165 169 175 180 186 181 179 182 180 178 176 176 173 172 170 169 175 177 179 174 169 172 169 176 178 186 189 185 176 180 181 181 185 188 188 194 196 199 203 205 204 202 203 199 190 202 217 230 221 191 209 202 206 205 203 208 222 218 222 223 218 221 216 223 234 244 249 253
218 205 203 190 185 172 163 154 156 161 161 149 150 150 154 163 167 170 174 177 184 182 178 182 180 173 171 167 167 169 170 170 174 178 174 172 175 176 168 162 173 173 180 166 168 175 179 189 194 195 185 198 204 202 205 208 207 208 205 208 203 196 198 224 223 228 213 205 207 209 210 210 215 224 221 223 225 221 225 221 217 230 241 245 246
203 215 196 172 152 132 149 161 164 161 150 151 150 156 161 165 169 167 175 182 185 185 180 170 164 165 168 168 171 173 175 174 176 173 171 171 159 154 165 171 174 172 167 170 178 186 192 196 188 193 202 207 211 210 208 213 213 213 212 207 213 192 218 225 226 231 228 219 196 204 219 222 223 222 224 228 229 226 225 230 226 223 228 242 238
188 180 144 141 154 159 162 162 156 148 150 148 149 149 159 161 162 169 184 188 176 162 162 165 163 164 167 170 170 174 173 173 169 166 162 159 162 165 160 166 171 172 171 175 183 190 196 200 192 202 204 212 208 210 206 212 218 218 218 214 216 220 225 229 233 238 228 232 219 211 209 220 227 230 231 231 230 229 229 230 229 231 230 246 260
71 146 143 137 135 130 127 124 136 143 145 149 149 154 156 160 164 182 186 161 153 160 157 155 158 162 164 165 166 166 165 161 157 152 156 164 166 164 169 172 174 174 180 187 186 189 196 202 199 200 202 207 204 198 194 210 216 220 221 221 222 227 223 230 244 248 240 236 233 225 219 214 225 234 238 237 237 236 233 234 235 237 246 248 248
126 122 142 137 134 136 139 140 143 144 146 150 148 150 155 157 175 181 153 148 152 150 152 153 155 157 161 163 163 163 161 158 159 163 163 166 161 162 164 165 167 173 181 187 187 187 191 202 209 209 205 205 197 198 195 203 215 219 224 226 230 233 225 218 232 247 246 247 246 229 215 215 223 230 236 241 243 242 242 241 243 247 249 251 251
76 117 144 125 118 118 118 126 135 142 147 151 153 152 159 168 173 148 144 142 145 148 147 151 156 161 159 161 163 162 160 160 160 159 159 152 159 162 162 170 171 173 178 187 191 184 190 200 210 217 209 205 198 188 211 207 210 220 224 229 235 240 240 235 226 247 252 248 246 232 219 221 227 230 234 240 244 242 239 244 249 253 257 258 255
147 138 133 126 132 131 120 114 121 138 146 152 155 153 156 160 157 144 146 146 146 146 149 154 156 157 159 155 152 154 154 151 151 152 152 157 158 156 162 170 163 172 177 187 193 184 196 206 208 218 218 204 189 193 207 219 217 218 226 230 234 238 241 244 249 250 243 245 247 246 237 232 229 232 237 243 248 247 248 251 254 256 259 259 258
114 113 114 120 115 114 118 116 99 108 130 137 144 150 154 160 145 146 144 141 143 146 151 154 151 150 147 141 142 143 147 152 156 163 165 165 164 168 169 168 171 180 182 188 189 185 201 205 215 221 222 205 177 184 204 210 219 221 226 231 235 239 243 244 247 257 259 260 254 249 255 254 247 243 246 245 247 246 248 252 254 256 255 255 255
147 144 132 125 128 123 124 124 120 107 115 118 127 123 135 135 144 141 140 141 144 145 142 141 144 140 141 147 149 155 152 153 158 153 151 155 158 165 163 167 178 178 183 190 188 189 197 203 218 223 211 187 192 191 196 195 205 214 224 230 237 244 249 252 255 258 265 266 273 274 275 273 267 256 248 244 242 239 242 245 239 239 238 240 242
126 137 133 126 130 133 132 129 128 130 116 113 116 123 135 132 134 137 136 134 136 142 144 148 148 148 153 156 155 153 152 155 161 158 152 154 165 171 172 179 182 182 180 190 187 195 199 202 213 211 193 190 216 217 206 200 197 204 214 214 231 240 242 237 255 263 262 271 282 291 288 297 300 294 281 278 259 249 244 240 236 227 224 226 231
137 151 148 143 142 131 133 126 125 122 106 99 98 105 120 129 132 136 136 133 135 134 134 137 141 140 146 151 148 156 158 154 157 162 160 167 172 181 184 187 199 182 185 179 188 202 206 204 194 193 188 213 220 229 233 204 203 199 197 196 214 215 219 224 237 248 263 278 284 279 277 276 269 270 272 263 259 249 243 238 227 229 224 220 219
124 119 123 118 128 132 129 123 118 111 104 103 97 85 77 103 127 135 133 131 132 129 129 138 141 142 142 142 142 148 149 151 154 158 144 83 69 158 170 164 182 179 191 198 176 195 195 180 193 214 190 201 213 214 201 204 212 214 218 215 214 215 218 220 237 249 252 261 255 258 257 260 263 260 264 265 261 263 261 238 225 219 215 204 211
143 130 131 134 135 133 123 121 127 122 113 109 102 95 94 96 123 133 130 132 133 131 130 136 141 149 155 147 143 142 146 144 149 151 151 145 103 60 111 159 154 161 181 201 205 207 184 180 180 207 236 244 255 253 246 232 226 225 230 236 239 238 238 237 238 242 251 248 253 258 265 252 259 260 261 265 270 268 264 258 243 228 221 218 220